Location: Kimberly
(42.5380°N, 114.3640°W)
Time: 08:44:59
(UTC-06:00)

ISS - Visible Passes

Search period start: 22 April 2019 00:00
Search period end: 02 May 2019 00:00
Orbit: 408 x 410 km, 51.6° (Epoch: 22 April)

Date Brightness Start Highest point End Pass type
(mag) Time Alt. Az. Time Alt. Az. Time Alt. Az.
27 Apr -1.6 06:02:07 10° S 06:04:42 21° SE 06:07:17 10° E visible
28 Apr -1.1 05:14:21 10° SSE 05:15:43 12° SE 05:17:06 10° ESE visible
29 Apr -3.2 05:59:49 10° SW 06:03:07 55° SE 06:06:27 10° ENE visible
30 Apr -2.4 05:12:44 18° S 05:14:37 32° SE 05:17:41 10° ENE visible
01 May -1.7 04:26:21 19° SE 04:26:27 19° SE 04:28:56 10° E visible
01 May -3.4 05:59:35 10° WSW 06:02:56 58° NNW 06:06:19 10° NE visible
